EI8EPB-1 Weather Reports


time (UTC)temp
C
wind
direction
speed
KPH
gust
KPH
rain 1hr
cm
rain 24hr
cm
rain mn
cm
humidity
%
barometer
mb
20260508021003 5 0 0.0 0.0 0.00 0.00 0.00 94 1012.1
20260508020504 5 0 0.0 0.0 0.00 0.00 0.00 94 1012.1
20260508020005 5 0 0.0 0.0 0.00 0.00 0.00 93 1012.2
20260508015503 5 0 0.0 0.0 0.00 0.00 0.00 93 1012.2
20260508015003 6 0 0.0 0.0 0.00 0.00 0.00 93 1012.2
20260508014504 6 0 0.0 0.0 0.00 0.00 0.00 93 1012.2
20260508014003 6 0 0.0 0.0 0.00 0.00 0.00 93 1012.3
20260508013503 6 0 0.0 0.0 0.00 0.00 0.00 93 1012.2
20260508013004 6 0 0.0 0.0 0.00 0.00 0.00 92 1012.2
20260508012503 6 0 0.0 0.0 0.00 0.00 0.00 92 1012.1
20260508012003 6 0 0.0 0.0 0.00 0.00 0.00 92 1012.1
20260508011503 6 0 0.0 0.0 0.00 0.00 0.00 92 1012.1
20260508011003 6 0 0.0 0.0 0.00 0.00 0.00 92 1012.2
20260508010503 6 0 0.0 0.0 0.00 0.00 0.00 91 1012.2
20260508010004 6 0 0.0 0.0 0.00 0.00 0.00 91 1012.2
20260508005503 7 0 0.0 0.0 0.00 0.00 0.00 90 1012.3
20260508005003 7 0 0.0 0.0 0.00 0.00 0.00 90 1012.3
20260508004503 7 0 0.0 0.0 0.00 0.00 0.00 90 1012.3
20260508004003 7 0 0.0 0.0 0.00 0.00 0.00 89 1012.3
20260508003503 7 0 0.0 0.0 0.00 0.00 0.00 90 1012.3
20260508003003 7 0 0.0 0.0 0.00 0.00 0.00 90 1012.3
20260508002503 8 0 0.0 0.0 0.00 0.00 0.00 90 1012.3
20260508002003 8 0 0.0 0.0 0.00 0.00 0.00 89 1012.2
20260508001503 8 0 0.0 0.0 0.00 0.00 0.00 89 1012.2
20260508001003 8 0 0.0 0.0 0.00 0.00 0.00 89 1012.3
20260508000503 8 0 0.0 0.0 0.00 0.00 0.00 89 1012.3
20260508000003 8 0 0.0 0.0 0.00 0.00 0.00 89 1012.3
20260507235503 8 0 0.0 0.0 0.00 0.00 0.00 88 1012.3
20260507235003 8 143 0.0 1.6 0.00 0.00 0.00 88 1012.3
20260507234503 8 150 0.0 1.6 0.00 0.00 0.00 88 1012.4
20260507234003 8 155 0.0 1.6 0.00 0.00 0.00 88 1012.4
20260507233503 8 0 0.0 0.0 0.00 0.00 0.00 88 1012.4
20260507233003 9 0 0.0 0.0 0.00 0.00 0.00 88 1012.2
20260507232503 9 0 0.0 0.0 0.00 0.00 0.00 88 1012.3
20260507232003 9 0 0.0 0.0 0.00 0.00 0.00 88 1012.2
20260507231503 9 151 0.0 1.6 0.00 0.00 0.00 88 1012.3
20260507231003 9 151 0.0 1.6 0.00 0.00 0.00 88 1012.3
20260507230503 9 134 0.0 1.6 0.00 0.00 0.00 88 1012.3
20260507230004 9 145 0.0 1.6 0.00 0.00 0.00 88 1012.3
20260507225503 9 165 0.0 1.6 0.00 0.00 0.00 87 1012.2
20260507225003 9 174 0.0 1.6 0.00 0.00 0.00 87 1012.2
20260507224504 9 174 0.0 1.6 0.00 0.00 0.00 87 1012.2
20260507224004 9 169 0.0 1.6 0.00 0.00 0.00 87 1012.1
20260507223503 9 160 0.0 1.6 0.00 0.00 0.00 87 1012.1
20260507223003 9 0 0.0 0.0 0.00 0.00 0.00 87 1012.2
20260507222503 9 170 0.0 1.6 0.00 0.00 0.00 87 1012.1
20260507222003 9 170 0.0 1.6 0.00 0.00 0.00 86 1012.2
20260507221503 10 0 0.0 0.0 0.00 0.00 0.00 86 1012.1
20260507221003 10 0 0.0 0.0 0.00 0.00 0.00 86 1012.1
20260507220503 10 0 0.0 0.0 0.00 0.00 0.00 86 1012.1
20260507220004 10 0 0.0 0.0 0.00 0.00 0.00 86 1012.1
20260507215503 10 0 0.0 0.0 0.00 0.00 0.00 86 1012.1
20260507215003 10 0 0.0 0.0 0.00 0.00 0.00 85 1012.2
20260507214503 10 0 0.0 0.0 0.00 0.00 0.00 85 1012.1
20260507214003 10 0 0.0 0.0 0.00 0.00 0.00 85 1012.1
20260507213503 10 0 0.0 0.0 0.00 0.00 0.00 85 1012.1
20260507213003 10 0 0.0 0.0 0.00 0.00 0.00 85 1012.1
20260507212503 10 158 0.0 1.6 0.00 0.00 0.00 84 1012.0
20260507212003 10 158 0.0 1.6 0.00 0.00 0.00 84 1012.0
20260507211503 10 0 0.0 0.0 0.00 0.00 0.00 84 1011.9
20260507211003 10 146 0.0 1.6 0.00 0.00 0.00 84 1011.9
20260507210503 10 141 0.0 1.6 0.00 0.00 0.00 84 1011.9
20260507210003 10 133 0.0 1.6 0.00 0.00 0.00 84 1011.9
20260507205503 10 132 0.0 1.6 0.00 0.00 0.00 84 1011.9
20260507205003 10 0 0.0 0.0 0.00 0.00 0.00 83 1011.8
20260507204503 10 0 0.0 0.0 0.00 0.00 0.00 83 1011.7
20260507204003 10 0 0.0 0.0 0.00 0.00 0.00 83 1011.6
20260507203503 10 141 0.0 1.6 0.00 0.00 0.00 82 1011.5
20260507203003 10 152 0.0 1.6 0.00 0.00 0.00 82 1011.4
20260507202503 10 144 0.0 1.6 0.00 0.00 0.00 82 1011.4
20260507202004 11 143 0.0 1.6 0.00 0.00 0.00 81 1011.4
20260507201503 11 147 0.0 1.6 0.00 0.00 0.00 81 1011.3
20260507201004 11 141 0.0 3.2 0.00 0.00 0.00 81 1011.3
20260507200503 11 151 0.0 3.2 0.00 0.00 0.00 80 1011.3
20260507200003 11 152 0.0 3.2 0.00 0.00 0.00 80 1011.3
20260507195503 11 147 0.0 3.2 0.00 0.00 0.00 80 1011.2
20260507195003 11 144 0.0 3.2 0.00 0.00 0.00 80 1011.1
20260507194503 11 145 0.0 3.2 0.00 0.00 0.00 80 1011.1
20260507194003 11 171 0.0 3.2 0.00 0.00 0.00 79 1011.1
20260507193503 11 205 0.0 6.4 0.00 0.00 0.00 79 1011.1
20260507193003 11 199 0.0 6.4 0.00 0.00 0.00 78 1011.1
20260507192503 11 173 1.6 4.8 0.00 0.00 0.00 78 1011.1
20260507192003 12 168 1.6 6.4 0.00 0.00 0.00 77 1011.0
20260507191503 12 166 1.6 6.4 0.00 0.00 0.00 77 1011.0
20260507191003 12 159 1.6 9.7 0.00 0.00 0.00 76 1011.0
20260507190504 12 153 1.6 9.7 0.00 0.00 0.00 76 1011.0
20260507190004 12 157 1.6 8.0 0.00 0.00 0.00 76 1011.0
20260507185503 12 173 0.0 6.4 0.00 0.00 0.00 76 1011.0
20260507185003 12 163 1.6 6.4 0.00 0.00 0.00 76 1011.0
20260507184503 12 159 1.6 6.4 0.00 0.00 0.00 76 1010.9
20260507184003 12 162 1.6 6.4 0.00 0.00 0.00 76 1010.8
20260507183503 12 161 1.6 6.4 0.00 0.00 0.00 76 1010.8
20260507183003 12 169 1.6 6.4 0.00 0.00 0.00 75 1010.8
20260507182503 12 165 1.6 8.0 0.00 0.00 0.00 75 1010.8
20260507182003 12 163 1.6 8.0 0.00 0.00 0.00 75 1010.8
20260507181503 13 168 1.6 6.4 0.00 0.00 0.00 76 1010.7
20260507181003 13 166 1.6 8.0 0.00 0.00 0.00 75 1010.7
20260507180503 13 169 1.6 8.0 0.00 0.00 0.00 75 1010.7
20260507180003 13 173 3.2 8.0 0.00 0.00 0.00 75 1010.6
20260507175503 13 180 3.2 8.0 0.00 0.00 0.00 74 1010.6
20260507175003 13 187 3.2 9.7 0.00 0.00 0.00 74 1010.6
20260507174503 13 172 3.2 9.7 0.00 0.00 0.00 74 1010.6
20260507174003 13 164 3.2 9.7 0.00 0.00 0.00 73 1010.6
20260507173503 13 165 3.2 12.9 0.00 0.00 0.00 73 1010.6
20260507173003 13 167 4.8 12.9 0.00 0.00 0.00 73 1010.6
20260507172503 13 164 4.8 16.1 0.00 0.00 0.00 73 1010.6
20260507172003 13 167 4.8 16.1 0.00 0.00 0.00 72 1010.6
20260507171503 13 173 3.2 11.3 0.00 0.00 0.00 72 1010.6
20260507171003 13 176 3.2 9.7 0.00 0.00 0.00 72 1010.5
20260507170503 13 172 3.2 12.9 0.00 0.00 0.00 71 1010.5
20260507170003 13 169 3.2 12.9 0.00 0.00 0.00 71 1010.5
20260507165503 13 169 3.2 9.7 0.00 0.00 0.00 71 1010.5
20260507165003 13 163 4.8 12.9 0.00 0.00 0.00 71 1010.6
20260507164503 13 163 3.2 12.9 0.00 0.00 0.00 71 1010.5
20260507164003 13 163 3.2 9.7 0.00 0.00 0.00 71 1010.5
20260507163503 13 163 4.8 11.3 0.00 0.00 0.00 70 1010.5
20260507163003 13 168 3.2 11.3 0.00 0.00 0.00 70 1010.6
20260507162503 13 175 3.2 12.9 0.00 0.00 0.00 71 1010.5
20260507162003 13 187 3.2 12.9 0.00 0.00 0.00 70 1010.5
20260507161503 13 196 3.2 6.4 0.00 0.00 0.00 70 1010.5
20260507161003 13 196 3.2 8.0 0.00 0.00 0.00 71 1010.5
20260507160503 13 196 1.6 8.0 0.00 0.00 0.00 70 1010.4
20260507160004 13 190 1.6 8.0 0.00 0.00 0.00 71 1010.4
20260507155503 13 188 1.6 8.0 0.00 0.00 0.00 70 1010.4
20260507155003 14 185 1.6 8.0 0.00 0.00 0.00 71 1010.4
20260507154504 14 192 3.2 9.7 0.00 0.00 0.00 69 1010.3
20260507154003 14 195 3.2 9.7 0.00 0.00 0.00 70 1010.3
20260507153504 14 190 3.2 9.7 0.00 0.00 0.00 68 1010.3
20260507153003 14 184 3.2 8.0 0.00 0.00 0.00 69 1010.3
20260507152503 14 186 3.2 8.0 0.00 0.00 0.00 67 1010.3
20260507152003 14 192 3.2 9.7 0.00 0.00 0.00 66 1010.2
20260507151503 14 195 3.2 9.7 0.00 0.00 0.00 66 1010.2
20260507151003 14 192 1.6 6.4 0.00 0.00 0.00 66 1010.3
20260507150503 14 183 3.2 8.0 0.00 0.00 0.00 65 1010.3
20260507150003 15 184 3.2 8.0 0.00 0.00 0.00 64 1010.2
20260507145503 15 189 1.6 6.4 0.00 0.00 0.00 64 1010.3
20260507145003 15 188 1.6 8.0 0.00 0.00 0.00 64 1010.2
20260507144503 15 192 1.6 8.0 0.00 0.00 0.00 62 1010.2
20260507144003 15 192 1.6 6.4 0.00 0.00 0.00 63 1010.2
20260507143503 15 193 1.6 8.0 0.00 0.00 0.00 62 1010.2
20260507143003 15 192 1.6 8.0 0.00 0.00 0.00 62 1010.2
20260507142503 16 189 1.6 8.0 0.00 0.00 0.00 59 1010.3
20260507142003 16 175 1.6 4.8 0.00 0.00 0.00 59 1010.4
20260507141503 16 162 1.6 8.0 0.00 0.00 0.00 61 1010.4
20260507141003 16 158 3.2 9.7 0.00 0.00 0.00 59 1010.3
20260507140503 15 161 4.8 11.3 0.00 0.00 0.00 62 1010.4
20260507140003 15 161 3.2 11.3 0.00 0.00 0.00 62 1010.4
20260507135503 15 153 3.2 9.7 0.00 0.00 0.00 63 1010.3
20260507135003 15 157 3.2 9.7 0.00 0.00 0.00 61 1010.3
20260507134503 15 158 3.2 9.7 0.00 0.00 0.00 62 1010.4
20260507134003 15 151 1.6 9.7 0.00 0.00 0.00 62 1010.4
20260507133503 15 158 1.6 8.0 0.00 0.00 0.00 64 1010.4
20260507133003 15 176 1.6 8.0 0.00 0.00 0.00 63 1010.4
20260507132503 15 175 1.6 4.8 0.00 0.00 0.00 63 1010.5
20260507132003 15 174 1.6 4.8 0.00 0.00 0.00 65 1010.4
20260507131503 15 186 1.6 6.4 0.00 0.00 0.00 65 1010.5
20260507131003 15 175 3.2 12.9 0.00 0.00 0.00 64 1010.5
20260507130503 15 175 3.2 12.9 0.00 0.00 0.00 63 1010.5
20260507130004 16 176 1.6 6.4 0.00 0.00 0.00 63 1010.6
20260507125503 16 174 3.2 6.4 0.00 0.00 0.00 61 1010.5
20260507125003 16 177 3.2 9.7 0.00 0.00 0.00 63 1010.5
20260507124503 16 179 1.6 9.7 0.00 0.00 0.00 62 1010.6
20260507124003 16 182 3.2 8.0 0.00 0.00 0.00 65 1010.6
20260507123503 15 167 3.2 8.0 0.00 0.00 0.00 66 1010.7
20260507123003 15 160 3.2 8.0 0.00 0.00 0.00 66 1010.7
20260507122503 14 161 3.2 9.7 0.00 0.00 0.00 70 1010.8
20260507122004 14 160 3.2 11.3 0.00 0.00 0.00 70 1010.9
20260507121504 14 162 3.2 11.3 0.00 0.00 0.00 71 1010.9
20260507121003 14 170 3.2 11.3 0.00 0.00 0.00 70 1010.9
20260507120503 14 179 3.2 8.0 0.00 0.00 0.00 70 1010.9
20260507120004 14 169 1.6 8.0 0.00 0.00 0.00 72 1010.9
20260507115503 13 153 1.6 9.7 0.00 0.00 0.00 74 1010.9
20260507115003 13 162 3.2 11.3 0.00 0.00 0.00 73 1011.0
20260507114503 13 162 3.2 12.9 0.00 0.00 0.00 73 1010.9
20260507114003 13 159 3.2 12.9 0.00 0.00 0.00 73 1010.9
20260507113503 13 160 3.2 8.0 0.00 0.00 0.00 74 1010.9
20260507113003 13 156 1.6 8.0 0.00 0.00 0.00 75 1010.9
20260507112503 13 167 3.2 8.0 0.00 0.00 0.00 75 1010.9
20260507112003 13 175 3.2 8.0 0.00 0.00 0.00 76 1010.9
20260507111504 13 175 1.6 4.8 0.00 0.00 0.00 77 1010.9
20260507111003 13 172 1.6 6.4 0.00 0.00 0.00 78 1010.9
20260507110503 13 178 1.6 6.4 0.00 0.00 0.00 78 1010.9
20260507110003 13 181 1.6 6.4 0.00 0.00 0.00 80 1010.9
20260507105503 12 190 0.0 3.2 0.00 0.00 0.00 81 1011.0
20260507105004 12 189 0.0 3.2 0.00 0.00 0.00 82 1011.0
20260507104504 12 188 0.0 3.2 0.00 0.00 0.00 84 1011.0
20260507104003 12 216 0.0 1.6 0.00 0.00 0.00 85 1011.0
20260507103504 12 171 1.6 4.8 0.00 0.00 0.00 86 1011.1
20260507103003 11 160 1.6 6.4 0.00 0.00 0.00 85 1011.2
20260507102503 11 164 1.6 6.4 0.00 0.00 0.00 85 1011.1
20260507102003 12 165 3.2 8.0 0.00 0.00 0.00 84 1011.2
20260507101503 12 163 1.6 8.0 0.00 0.00 0.00 83 1011.1
20260507101003 12 166 1.6 4.8 0.00 0.00 0.00 83 1011.2
20260507100503 12 168 1.6 4.8 0.00 0.00 0.00 83 1011.2
20260507100003 12 178 1.6 4.8 0.00 0.00 0.00 83 1011.1
20260507095503 12 198 0.0 3.2 0.00 0.00 0.00 83 1011.1
20260507095003 12 212 0.0 3.2 0.00 0.00 0.00 82 1011.2
20260507094503 13 250 0.0 3.2 0.00 0.00 0.00 82 1011.1
20260507094003 13 223 0.0 4.8 0.00 0.00 0.00 82 1011.1
20260507093503 13 211 1.6 4.8 0.00 0.00 0.00 86 1011.1
20260507093003 12 222 1.6 4.8 0.00 0.00 0.00 89 1011.1
20260507092503 12 215 0.0 4.8 0.00 0.00 0.00 90 1011.2
20260507092003 11 182 1.6 9.7 0.00 0.00 0.00 90 1011.2
20260507091503 11 178 3.2 9.7 0.00 0.00 0.00 90 1011.2
20260507091003 11 181 3.2 6.4 0.00 0.00 0.00 91 1011.3
20260507090503 11 172 1.6 6.4 0.00 0.00 0.00 92 1011.3
20260507090005 10 158 1.6 6.4 0.00 0.00 0.00 92 1011.3
20260507085503 10 159 1.6 6.4 0.00 0.00 0.00 92 1011.4
20260507085003 10 179 0.0 3.2 0.00 0.00 0.00 93 1011.4
20260507084503 10 172 0.0 4.8 0.00 0.00 0.00 93 1011.3
20260507084003 10 170 1.6 4.8 0.00 0.00 0.00 93 1011.2
20260507083503 10 176 1.6 6.4 0.00 0.00 0.00 92 1011.3
20260507083003 10 186 1.6 6.4 0.00 0.00 0.00 92 1011.3
20260507082503 10 177 0.0 3.2 0.00 0.00 0.00 92 1011.3
20260507082003 10 176 0.0 3.2 0.00 0.00 0.00 92 1011.4
20260507081503 10 176 1.6 3.2 0.00 0.00 0.00 91 1011.3
20260507081003 10 169 0.0 3.2 0.00 0.00 0.00 90 1011.4
20260507080503 10 177 0.0 3.2 0.00 0.00 0.00 90 1011.3
20260507080004 10 175 0.0 3.2 0.00 0.00 0.00 90 1011.3
20260507075503 10 163 0.0 3.2 0.00 0.00 0.00 89 1011.3
20260507075003 10 162 0.0 3.2 0.00 0.00 0.00 89 1011.3
20260507074503 10 166 1.6 3.2 0.00 0.00 0.00 89 1011.2
20260507074003 10 171 1.6 4.8 0.00 0.00 0.00 88 1011.2
20260507073503 11 175 1.6 4.8 0.00 0.00 0.00 87 1011.2
20260507073003 11 184 0.0 4.8 0.00 0.00 0.00 88 1011.2
20260507072503 11 191 0.0 3.2 0.00 0.00 0.00 88 1011.1
20260507072003 10 187 1.6 3.2 0.00 0.00 0.00 88 1011.1
20260507071503 10 175 0.0 3.2 0.00 0.00 0.00 88 1011.1
20260507071003 10 163 0.0 3.2 0.00 0.00 0.00 88 1011.2
20260507070503 10 163 0.0 3.2 0.00 0.00 0.00 89 1011.1
20260507070007 10 166 0.0 3.2 0.00 0.00 0.00 90 1011.1
20260507065503 10 0 0.0 0.0 0.00 0.00 0.00 90 1011.1
20260507065003 10 0 0.0 0.0 0.00 0.00 0.00 90 1011.1
20260507064503 10 0 0.0 0.0 0.00 0.00 0.00 91 1011.1
20260507064003 10 0 0.0 0.0 0.00 0.00 0.00 91 1011.1
20260507063503 10 0 0.0 0.0 0.00 0.00 0.00 91 1011.1
20260507063003 9 0 0.0 0.0 0.00 0.00 0.00 92 1011.2
20260507062503 9 0 0.0 0.0 0.00 0.00 0.00 92 1011.1
20260507062003 9 0 0.0 0.0 0.00 0.00 0.00 92 1011.2
20260507061503 9 0 0.0 0.0 0.00 0.00 0.00 92 1011.2
20260507061003 8 0 0.0 0.0 0.00 0.00 0.00 92 1011.1
20260507060503 8 0 0.0 0.0 0.00 0.00 0.00 92 1011.1
20260507060003 8 0 0.0 0.0 0.00 0.00 0.00 92 1011.0
20260507055503 8 0 0.0 0.0 0.00 0.00 0.00 92 1011.0
20260507055003 8 0 0.0 0.0 0.00 0.00 0.00 92 1011.1
20260507054503 8 0 0.0 0.0 0.00 0.00 0.00 92 1011.1
20260507054003 8 0 0.0 0.0 0.00 0.00 0.00 92 1011.1
20260507053503 8 0 0.0 0.0 0.00 0.00 0.00 92 1011.1
20260507053004 8 0 0.0 0.0 0.00 0.00 0.00 92 1011.0
20260507052503 8 0 0.0 0.0 0.00 0.00 0.00 92 1011.0
20260507052003 8 0 0.0 0.0 0.00 0.00 0.00 92 1011.0
20260507051503 8 0 0.0 0.0 0.00 0.00 0.00 91 1011.0
20260507051003 8 0 0.0 0.0 0.00 0.00 0.00 91 1011.0
20260507050503 8 0 0.0 0.0 0.00 0.00 0.00 91 1011.0
20260507050003 8 0 0.0 0.0 0.00 0.00 0.00 91 1011.0
20260507045503 8 0 0.0 0.0 0.00 0.00 0.00 91 1011.0
20260507045003 8 0 0.0 0.0 0.00 0.00 0.00 91 1011.1
20260507044503 8 0 0.0 0.0 0.00 0.00 0.00 91 1011.1
20260507044003 8 0 0.0 0.0 0.00 0.00 0.00 91 1011.1
20260507043503 8 0 0.0 0.0 0.00 0.00 0.00 90 1011.0
20260507043003 8 0 0.0 0.0 0.00 0.00 0.00 90 1011.0
20260507042503 8 0 0.0 0.0 0.00 0.00 0.00 90 1011.0
20260507042003 8 0 0.0 0.0 0.00 0.00 0.00 90 1010.9
20260507041503 8 0 0.0 0.0 0.00 0.00 0.00 90 1011.0
20260507041003 8 0 0.0 0.0 0.00 0.00 0.00 90 1011.0
20260507040503 8 0 0.0 0.0 0.00 0.00 0.00 89 1011.0
20260507040003 8 0 0.0 0.0 0.00 0.00 0.00 89 1011.0
20260507035503 8 0 0.0 0.0 0.00 0.00 0.00 89 1011.0
20260507035004 8 0 0.0 0.0 0.00 0.00 0.00 89 1011.1
20260507034503 8 0 0.0 0.0 0.00 0.00 0.00 89 1011.1
20260507034003 8 0 0.0 0.0 0.00 0.00 0.00 88 1011.1
20260507033503 8 0 0.0 0.0 0.00 0.00 0.00 88 1011.1
20260507033003 8 0 0.0 0.0 0.00 0.00 0.00 88 1011.1
20260507032504 8 0 0.0 0.0 0.00 0.00 0.00 88 1011.1
20260507032003 8 0 0.0 0.0 0.00 0.00 0.00 88 1011.1
20260507031503 8 0 0.0 0.0 0.00 0.00 0.00 88 1011.2
20260507031003 8 172 0.0 1.6 0.00 0.00 0.00 88 1011.2
20260507030503 8 172 0.0 1.6 0.00 0.00 0.00 88 1011.1
20260507030004 8 0 0.0 0.0 0.00 0.00 0.00 88 1011.2
20260507025503 8 0 0.0 0.0 0.00 0.00 0.00 88 1011.2
20260507025003 8 0 0.0 0.0 0.00 0.00 0.00 88 1011.2
20260507024503 8 0 0.0 0.0 0.00 0.00 0.00 88 1011.2
20260507024003 8 0 0.0 0.0 0.00 0.00 0.00 88 1011.2
20260507023503 8 0 0.0 0.0 0.00 0.00 0.00 87 1011.2
20260507023003 8 0 0.0 0.0 0.00 0.00 0.00 87 1011.3
20260507022503 8 0 0.0 0.0 0.00 0.00 0.00 87 1011.2
20260507022003 8 0 0.0 0.0 0.00 0.00 0.00 87 1011.2
20260507021503 8 0 0.0 0.0 0.00 0.00 0.00 87 1011.2